Weather History for Hollister Municipal Airport, CA

Change the Weather History Date:

Tuesday, February 4, 2014

  Actual Average (KSNS) Record (KSNS)
Temperature  
Mean Temperature 44 °F 52 °F  
Max Temperature 57 °F 62 °F 80 °F (2001)
Min Temperature 32 °F 42 °F 28 °F (1946)
Degree Days  
Heating Degree Days 20 13  
Month to date heating degree days 52  
Since 1 July heating degree days 1530  
Cooling Degree Days 0 0  
Month to date cooling degree days 0  
Year to date cooling degree days 0  
Growing Degree Days 0 (Base 50)    
Moisture  
Dew Point 37 °F    
Average Humidity 78    
Maximum Humidity 100    
Minimum Humidity 48    
Precipitation  
Precipitation 0.00 in 0.09 in 0.78 in (1950)
Month to date precipitation 0.37  
Year to date precipitation 2.97  
Since 1 July precipitation 7.08  
Sea Level Pressure  
Sea Level Pressure 30.13 in    
Wind  
Wind Speed 2 mph (West)    
Max Wind Speed 13 mph    
Max Gust Speed -    
Visibility 10 miles    
Events      
T = Trace of Precipitation, MM = Missing Value Source: NWS Daily Summary

Daily Weather History Graph

Daily Weather History Graph

Search for Another Location

Airport:

Trip Planner

Search our weather history database for the weather conditions in past years. The results will help you decide how hot, cold, wet, or windy it might be!

Date:

Astronomy

Feb. 04, 2014 Rise Set
Actual Time 7:05 AM PST 5:34 PM PST
Civil Twilight 6:38 AM PST 6:01 PM PST
Nautical Twilight 6:07 AM PST 6:32 PM PST
Astronomical Twilight 5:36 AM PST 7:02 PM PST
Moon 9:55 AM PST (2/4) 11:23 PM PST (2/4)
Length of Visible Light 11h 23m
Length of Day
10h 29m
Waxing Crescent, 30% of the Moon is Illuminated
Feb 4
Waxing Crescent
Feb 6
First Quarter
Feb 14
Full
Feb 22
Last Quarter
Mar 1
New

Hourly Weather History & Observations

Time (PST) Temp. Windchill Dew Point Humidity Pressure Visibility Wind Dir Wind Speed Gust Speed Precip Events Conditions
12:10 AM 37.4 °F - 35.6 °F 93% 30.10 in 10.0 mi Calm Calm - N/A   Clear
12:30 AM 37.4 °F 34.9 °F 35.6 °F 93% 30.10 in 10.0 mi ENE 3.5 mph - N/A   Scattered Clouds
12:50 AM 39.2 °F - 35.6 °F 87% 30.10 in 10.0 mi Calm Calm - N/A   Scattered Clouds
1:10 AM 37.4 °F - 35.6 °F 93% 30.10 in 10.0 mi Calm Calm - N/A   Clear
1:30 AM 37.4 °F - 35.6 °F 93% 30.11 in 10.0 mi Calm Calm - N/A   Scattered Clouds
1:50 AM 37.4 °F 33.8 °F 35.6 °F 93% 30.11 in 10.0 mi East 4.6 mph - N/A   Partly Cloudy
2:10 AM 35.6 °F - 33.8 °F 93% 30.11 in 10.0 mi Calm Calm - N/A   Scattered Clouds
2:30 AM 35.6 °F 32.8 °F 33.8 °F 93% 30.11 in 10.0 mi SE 3.5 mph - N/A   Scattered Clouds
2:50 AM 33.8 °F - 33.8 °F 100% 30.10 in 10.0 mi Calm Calm - N/A   Clear
3:10 AM 33.8 °F - 33.8 °F 100% 30.10 in 10.0 mi Calm Calm - N/A   Clear
3:30 AM 35.6 °F - 33.8 °F 93% 30.11 in 10.0 mi Calm Calm - N/A   Clear
3:50 AM 35.6 °F - 33.8 °F 93% 30.11 in 10.0 mi Calm Calm - N/A   Clear
4:10 AM 35.6 °F 31.7 °F 33.8 °F 93% 30.11 in 10.0 mi ENE 4.6 mph - N/A   Clear
4:30 AM 33.8 °F - 33.8 °F 100% 30.11 in 10.0 mi Calm Calm - N/A   Clear
4:50 AM 33.8 °F - 33.8 °F 100% 30.12 in 10.0 mi Calm Calm - N/A   Clear
5:10 AM 32.0 °F - 32.0 °F 100% 30.12 in 10.0 mi Calm Calm - N/A   Clear
5:30 AM 33.8 °F - 33.8 °F 100% 30.12 in 10.0 mi Calm Calm - N/A   Clear
5:50 AM 33.8 °F - 33.8 °F 100% 30.12 in 10.0 mi Calm Calm - N/A   Clear
6:10 AM 33.8 °F - 33.8 °F 100% 30.12 in 10.0 mi Calm Calm - N/A   Clear
6:30 AM 35.6 °F 32.8 °F 35.6 °F 100% 30.12 in 10.0 mi NE 3.5 mph - N/A   Clear
6:50 AM 33.8 °F - 33.8 °F 100% 30.13 in 10.0 mi Calm Calm - N/A   Clear
7:10 AM 35.6 °F - 33.8 °F 93% 30.13 in 10.0 mi Calm Calm - N/A   Clear
7:30 AM 35.6 °F - 33.8 °F 93% 30.14 in 10.0 mi Calm Calm - N/A   Clear
7:50 AM 33.8 °F 30.8 °F 33.8 °F 100% 30.14 in 10.0 mi NE 3.5 mph - N/A   Clear
8:10 AM 35.6 °F 32.8 °F 35.6 °F 100% 30.14 in 10.0 mi NE 3.5 mph - N/A   Clear
8:30 AM 37.4 °F - 35.6 °F 93% 30.15 in 10.0 mi Calm Calm - N/A   Clear
8:50 AM 39.2 °F - 37.4 °F 93% 30.16 in 10.0 mi Calm Calm - N/A   Clear
9:10 AM 39.2 °F - 37.4 °F 93% 30.16 in 10.0 mi Calm Calm - N/A   Clear
9:30 AM 41.0 °F - 37.4 °F 87% 30.17 in 10.0 mi Calm Calm - N/A   Clear
9:50 AM 42.8 °F - 37.4 °F 81% 30.17 in 10.0 mi Calm Calm - N/A   Clear
10:10 AM 42.8 °F - 37.4 °F 81% 30.18 in 10.0 mi Calm Calm - N/A   Clear
10:30 AM 44.6 °F - 39.2 °F 81% 30.18 in 10.0 mi Calm Calm - N/A   Clear
10:50 AM 46.4 °F 45.2 °F 39.2 °F 76% 30.18 in 10.0 mi NNE 3.5 mph - N/A   Clear
11:10 AM 46.4 °F - 39.2 °F 76% 30.17 in 10.0 mi Calm Calm - N/A   Clear
11:30 AM 48.2 °F - 39.2 °F 71% 30.17 in 10.0 mi Calm Calm - N/A   Clear
11:50 AM 50.0 °F - 39.2 °F 66% 30.16 in 10.0 mi Calm Calm - N/A   Clear
12:10 PM 51.8 °F - 39.2 °F 62% 30.15 in 10.0 mi SSE 3.5 mph - N/A   Clear
12:30 PM 53.6 °F - 39.2 °F 58% 30.13 in 10.0 mi WSW 4.6 mph - N/A   Clear
12:50 PM 53.6 °F - 39.2 °F 58% 30.12 in 10.0 mi Calm Calm - N/A   Clear
1:10 PM 55.4 °F - 37.4 °F 51% 30.11 in 10.0 mi Calm Calm - N/A   Clear
1:30 PM 55.4 °F - 37.4 °F 51% 30.10 in 10.0 mi Calm Calm - N/A   Clear
1:50 PM 55.4 °F - 37.4 °F 51% 30.09 in 10.0 mi Calm Calm - N/A   Clear
2:10 PM 55.4 °F - 37.4 °F 51% 30.08 in 10.0 mi Calm Calm - N/A   Clear
2:30 PM 57.2 °F - 39.2 °F 51% 30.08 in 10.0 mi West 6.9 mph - N/A   Clear
2:50 PM 57.2 °F - 37.4 °F 48% 30.08 in 10.0 mi West 4.6 mph - N/A   Clear
3:10 PM 55.4 °F - 39.2 °F 54% 30.07 in 10.0 mi SW 5.8 mph - N/A   Clear
3:30 PM 55.4 °F - 39.2 °F 54% 30.07 in 10.0 mi WSW 9.2 mph - N/A   Clear
3:50 PM 55.4 °F - 37.4 °F 51% 30.08 in 10.0 mi WSW 10.4 mph - N/A   Clear
4:10 PM 55.4 °F - 39.2 °F 54% 30.08 in 10.0 mi WSW 11.5 mph - N/A   Clear
4:30 PM 53.6 °F - 39.2 °F 58% 30.08 in 10.0 mi WSW 11.5 mph - N/A   Clear
4:50 PM 51.8 °F - 39.2 °F 62% 30.09 in 10.0 mi WSW 12.7 mph - N/A   Clear
5:10 PM 51.8 °F - 39.2 °F 62% 30.09 in 10.0 mi WSW 11.5 mph - N/A   Clear
5:30 PM 50.0 °F - 39.2 °F 66% 30.09 in 10.0 mi WSW 9.2 mph - N/A   Clear
5:50 PM 50.0 °F - 39.2 °F 66% 30.09 in 10.0 mi West 5.8 mph - N/A   Clear
6:10 PM 50.0 °F - 39.2 °F 66% 30.10 in 10.0 mi WNW 6.9 mph - N/A   Clear
6:30 PM 50.0 °F - 37.4 °F 62% 30.11 in 10.0 mi NNW 3.5 mph - N/A   Clear
6:50 PM 50.0 °F - 39.2 °F 66% 30.11 in 10.0 mi North 3.5 mph - N/A   Clear
7:10 PM 50.0 °F - 37.4 °F 62% 30.12 in 10.0 mi Calm Calm - N/A   Clear
7:30 PM 48.2 °F - 37.4 °F 66% 30.12 in 10.0 mi Calm Calm - N/A   Clear
7:50 PM 48.2 °F - 39.2 °F 71% 30.13 in 10.0 mi Calm Calm - N/A   Clear
8:10 PM 48.2 °F - 37.4 °F 66% 30.13 in 10.0 mi Calm Calm - N/A   Clear
8:30 PM 46.4 °F - 37.4 °F 71% 30.14 in 10.0 mi Calm Calm - N/A   Clear
8:50 PM 46.4 °F 45.2 °F 37.4 °F 71% 30.15 in 10.0 mi SSE 3.5 mph - N/A   Clear
9:10 PM 46.4 °F - 37.4 °F 71% 30.16 in 10.0 mi Calm Calm - N/A   Clear
9:30 PM 44.6 °F - 37.4 °F 76% 30.18 in 10.0 mi Calm Calm - N/A   Clear
9:50 PM 44.6 °F 43.1 °F 37.4 °F 76% 30.18 in 10.0 mi South 3.5 mph - N/A   Clear
10:10 PM 42.8 °F - 37.4 °F 81% 30.18 in 10.0 mi Calm Calm - N/A   Clear
10:30 PM 44.6 °F - 37.4 °F 76% 30.18 in 10.0 mi Calm Calm - N/A   Clear
10:50 PM 42.8 °F - 37.4 °F 81% 30.18 in 10.0 mi Calm Calm - N/A   Clear
11:10 PM 46.4 °F 44.3 °F 37.4 °F 71% 30.17 in 10.0 mi WNW 4.6 mph - N/A   Clear
11:30 PM 44.6 °F 42.2 °F 37.4 °F 76% 30.17 in 10.0 mi NW 4.6 mph - N/A   Clear
11:50 PM 39.2 °F 37.0 °F 35.6 °F 87% 30.17 in 10.0 mi SSE 3.5 mph - N/A   Clear